Hourly Weather Holyoke

Today, 11 April, Sunday

Time Temperature Precipitation Wind Pressure Humidity
00:00 +14°C° 0 mm 1 mps 750 mmHg 92%
01:00 +13°C° 0 mm 1 mps 750 mmHg 93%
02:00 +13°C° 0 mm 1 mps 750 mmHg 94%
03:00 +13°C° 0 mm 1 mps 749 mmHg 95%
04:00 +13°C° 0 mm 1 mps 749 mmHg 95%
05:00 +13°C° 0 mm 1 mps 749 mmHg 93%
06:00 +14°C° 0 mm 1 mps 749 mmHg 90%
07:00 +15°C° 0 mm 2 mps 749 mmHg 88%
08:00 +16°C° 0 mm 2 mps 749 mmHg 82%
09:00 +17°C° 0 mm 2 mps 749 mmHg 75%
10:00 +19°C° 0 mm 2 mps 749 mmHg 69%
11:00 +19°C° 0 mm 3 mps 748 mmHg 68%
12:00 +19°C° 0 mm 3 mps 748 mmHg 67%
13:00 +19°C° 0 mm 4 mps 748 mmHg 66%
14:00 +17°C° 0.1 mm 4 mps 748 mmHg 70%
15:00 +14°C° 0.1 mm 4 mps 748 mmHg 74%
16:00 +12°C° 0.1 mm 4 mps 748 mmHg 78%
17:00 +11°C° 0.7 mm 4 mps 749 mmHg 83%
18:00 +10°C° 0.7 mm 4 mps 749 mmHg 88%
19:00 +7°C° 0.7 mm 4 mps 749 mmHg 93%
20:00 +7°C° 0.1 mm 4 mps 750 mmHg 93%
21:00 +8°C° 0.1 mm 3 mps 750 mmHg 93%
22:00 +7°C° 0.1 mm 3 mps 750 mmHg 92%
23:00 +7°C° 0.3 mm 3 mps 750 mmHg 92%

Tomorrow, 12 April, Monday

Time Temperature Precipitation Wind Pressure Humidity
00:00 +7°C° 0.3 mm 3 mps 750 mmHg 92%
01:00 +7°C° 0.3 mm 3 mps 750 mmHg 92%
02:00 +7°C° 0.4 mm 3 mps 750 mmHg 91%
03:00 +7°C° 0.4 mm 3 mps 750 mmHg 91%
04:00 +7°C° 0.4 mm 3 mps 750 mmHg 90%
05:00 +7°C° 0.1 mm 3 mps 751 mmHg 89%
06:00 +7°C° 0.1 mm 3 mps 751 mmHg 88%
07:00 +7°C° 0.1 mm 3 mps 751 mmHg 87%
08:00 +7°C° 0 mm 3 mps 751 mmHg 85%
09:00 +7°C° 0 mm 4 mps 751 mmHg 82%
10:00 +7°C° 0 mm 4 mps 751 mmHg 79%
11:00 +7°C° 0 mm 4 mps 751 mmHg 81%
12:00 +7°C° 0 mm 4 mps 751 mmHg 82%
13:00 +7°C° 0 mm 4 mps 751 mmHg 84%
14:00 +7°C° 0 mm 4 mps 752 mmHg 84%
15:00 +7°C° 0 mm 4 mps 752 mmHg 83%
16:00 +7°C° 0 mm 4 mps 752 mmHg 83%
17:00 +6°C° 0 mm 4 mps 752 mmHg 84%
18:00 +7°C° 0 mm 3 mps 753 mmHg 86%
19:00 +5°C° 0 mm 3 mps 754 mmHg 88%
20:00 +5°C° 0 mm 3 mps 754 mmHg 87%
21:00 +5°C° 0 mm 3 mps 754 mmHg 86%
22:00 +5°C° 0 mm 3 mps 755 mmHg 85%
23:00 +5°C° 0 mm 3 mps 755 mmHg 86%

Day after tomorrow, 13 April, Tuesday

Time Temperature Precipitation Wind Pressure Humidity
00:00 +4°C° 0 mm 3 mps 755 mmHg 86%
01:00 +4°C° 0 mm 2 mps 755 mmHg 87%
02:00 +4°C° 0 mm 2 mps 755 mmHg 87%
03:00 +4°C° 0 mm 2 mps 756 mmHg 87%
04:00 +4°C° 0 mm 2 mps 756 mmHg 87%
05:00 +4°C° 0 mm 2 mps 756 mmHg 86%
06:00 +5°C° 0 mm 2 mps 757 mmHg 85%
07:00 +6°C° 0 mm 2 mps 757 mmHg 84%
08:00 +7°C° 0 mm 2 mps 757 mmHg 79%
09:00 +9°C° 0 mm 2 mps 757 mmHg 74%
10:00 +10°C° 0 mm 2 mps 757 mmHg 69%
11:00 +12°C° 0 mm 2 mps 757 mmHg 67%
12:00 +12°C° 0 mm 2 mps 757 mmHg 65%
13:00 +13°C° 0 mm 2 mps 757 mmHg 63%
14:00 +13°C° 0 mm 2 mps 757 mmHg 64%
15:00 +13°C° 0 mm 2 mps 757 mmHg 64%
16:00 +13°C° 0 mm 2 mps 757 mmHg 65%
17:00 +12°C° 0 mm 1 mps 757 mmHg 70%
18:00 +11°C° 0 mm 1 mps 758 mmHg 75%
19:00 +10°C° 0 mm 1 mps 759 mmHg 80%
20:00 +9°C° 0 mm 0 mps 759 mmHg 81%
21:00 +8°C° 0 mm 0 mps 759 mmHg 82%
22:00 +8°C° 0 mm 0 mps 759 mmHg 84%
23:00 +8°C° 0 mm 0 mps 759 mmHg 84%

14 April, Wednesday

Time Temperature Precipitation Wind Pressure Humidity
00:00 +8°C° 0 mm 0 mps 759 mmHg 85%
01:00 +8°C° 0 mm 0 mps 758 mmHg 86%
02:00 +8°C° 0 mm 0 mps 758 mmHg 86%
03:00 +8°C° 0 mm 0 mps 758 mmHg 87%
04:00 +7°C° 0 mm 0 mps 758 mmHg 87%
05:00 +8°C° 0 mm 0 mps 758 mmHg 87%
06:00 +8°C° 0 mm 0 mps 758 mmHg 86%
07:00 +9°C° 0 mm 1 mps 759 mmHg 86%
08:00 +11°C° 0 mm 1 mps 758 mmHg 81%
09:00 +12°C° 0 mm 1 mps 758 mmHg 76%
10:00 +13°C° 0 mm 1 mps 758 mmHg 72%
11:00 +14°C° 0.1 mm 1 mps 757 mmHg 68%
12:00 +14°C° 0.1 mm 1 mps 757 mmHg 65%
13:00 +15°C° 0.1 mm 2 mps 756 mmHg 61%
14:00 +15°C° 0.1 mm 2 mps 756 mmHg 65%
15:00 +14°C° 0.1 mm 2 mps 756 mmHg 70%
16:00 +13°C° 0.1 mm 2 mps 755 mmHg 74%
17:00 +12°C° 0 mm 2 mps 756 mmHg 77%
18:00 +12°C° 0 mm 2 mps 756 mmHg 80%
19:00 +10°C° 0 mm 2 mps 756 mmHg 83%
20:00 +10°C° 0 mm 2 mps 756 mmHg 86%
21:00 +9°C° 0 mm 2 mps 756 mmHg 88%
22:00 +10°C° 0 mm 1 mps 755 mmHg 91%
23:00 +10°C° 0 mm 1 mps 755 mmHg 91%

15 April, Thursday

Time Temperature Precipitation Wind Pressure Humidity
00:00 +9°C° 0 mm 1 mps 755 mmHg 92%
01:00 +9°C° 0 mm 1 mps 755 mmHg 92%
02:00 +9°C° 0.1 mm 1 mps 754 mmHg 93%
03:00 +8°C° 0.1 mm 2 mps 754 mmHg 94%
04:00 +8°C° 0.1 mm 2 mps 754 mmHg 94%
05:00 +8°C° 0.2 mm 2 mps 754 mmHg 94%
06:00 +8°C° 0.2 mm 2 mps 754 mmHg 93%
07:00 +8°C° 0.2 mm 2 mps 754 mmHg 93%
08:00 +8°C° 0.1 mm 2 mps 754 mmHg 85%
09:00 +9°C° 0.1 mm 3 mps 754 mmHg 76%
10:00 +10°C° 0.1 mm 3 mps 754 mmHg 68%
11:00 +11°C° 0 mm 3 mps 753 mmHg 57%
12:00 +13°C° 0 mm 4 mps 753 mmHg 47%
13:00 +15°C° 0 mm 5 mps 752 mmHg 37%
14:00 +14°C° 0 mm 5 mps 752 mmHg 41%
15:00 +13°C° 0 mm 5 mps 751 mmHg 45%
16:00 +12°C° 0 mm 5 mps 751 mmHg 48%
17:00 +10°C° 0.3 mm 4 mps 751 mmHg 57%
18:00 +8°C° 0.3 mm 4 mps 752 mmHg 65%
19:00 +6°C° 0.3 mm 4 mps 752 mmHg 73%
20:00 +5°C° 1.3 mm 3 mps 752 mmHg 78%
21:00 +4°C° 1.3 mm 3 mps 753 mmHg 84%
22:00 +4°C° 1.3 mm 2 mps 753 mmHg 89%
23:00 +3°C° 1.1 mm 3 mps 752 mmHg 91%

16 April, Friday

Time Temperature Precipitation Wind Pressure Humidity
00:00 +3°C° 1.1 mm 4 mps 751 mmHg 92%
01:00 +4°C° 1.1 mm 4 mps 751 mmHg 94%
02:00 +2°C° 2.2 mm 5 mps 750 mmHg 95%
03:00 +2°C° 2.2 mm 5 mps 750 mmHg 95%
04:00 +2°C° 2.2 mm 5 mps 750 mmHg 96%
05:00 +2°C° 1.1 mm 5 mps 749 mmHg 95%
06:00 +2°C° 1.1 mm 6 mps 749 mmHg 95%
07:00 +2°C° 1.1 mm 6 mps 749 mmHg 95%
08:00 +2°C° 1.1 mm 6 mps 749 mmHg 95%
09:00 +3°C° 1.1 mm 6 mps 749 mmHg 95%
10:00 +3°C° 1.1 mm 6 mps 749 mmHg 95%
11:00 +2°C° 1 mm 6 mps 749 mmHg 95%
12:00 +2°C° 1 mm 6 mps 749 mmHg 94%
13:00 +2°C° 1 mm 6 mps 749 mmHg 94%
14:00 +1°C° 1.2 mm 6 mps 749 mmHg 95%
15:00 +1°C° 1.2 mm 6 mps 749 mmHg 96%
16:00 +1°C° 1.2 mm 6 mps 749 mmHg 96%
17:00 +1°C° 0.8 mm 6 mps 749 mmHg 96%
18:00 +1°C° 0.8 mm 6 mps 749 mmHg 95%
19:00 0°C° 0.8 mm 7 mps 749 mmHg 95%
20:00 +1°C° 0.2 mm 6 mps 749 mmHg 95%
21:00 +1°C° 0.2 mm 6 mps 749 mmHg 95%
22:00 +1°C° 0.2 mm 5 mps 749 mmHg 95%
23:00 +1°C° 0.1 mm 5 mps 750 mmHg 96%
Show more